Location: Dehesa de la Cepeda
(40.6574°N, 4.3013°W)
Time: 19:23:02
(UTC+00:00)

Cosmos 2219 Rocket - Pass Details

Date: 05 July 2020
Orbit: 827 x 847 km, 71.0° (Epoch: 05 August)

Event Time Altitude Azimuth Distance (km) Brightness Sun altitude
Exits shadow 20:30:51 - 145° (SE) 2,681 4.2 -7.0°
Reaches altitude 10° 20:31:51 10° 138° (SE) 2,424 3.9 -7.2°
Maximum altitude 20:35:20 17° 99° (E) 1,974 3.6 -7.7°
Drops below altitude 10° 20:38:49 10° 60° (ENE) 2,439 4.4 -8.2°
Sets 20:42:04 0° 41° (NE) 3,382 5.3 -8.7°
